| time (UTC) | temp F | wind direction | speed MPH | gust MPH | rain 1hr in | rain 24hr in | rain mn in | humidity % | barometer mb |
| 20260505123042 | 63 | 115 | 0.0 | 1.0 | 0.00 | 0.08 | 0.08 | 70 | 1009.7 |
| 20260505121542 | 62 | 253 | 0.0 | 4.0 | 0.00 | 0.08 | 0.08 | 71 | 1009.8 |
| 20260505120047 | 60 | 322 | 0.0 | 5.0 | 0.01 | 0.08 | 0.08 | 78 | 1010.0 |
| 20260505114535 | 59 | 143 | 0.0 | 3.0 | 0.08 | 0.08 | 0.08 | 78 | 1009.9 |
| 20260505113039 | 57 | 0 | 0.0 | 1.0 | 0.08 | 0.08 | 0.08 | 85 | 1009.8 |
| 20260505111539 | 58 | 0 | 0.0 | 2.0 | 0.08 | 0.08 | 0.08 | 84 | 1009.7 |
| 20260505101543 | 63 | 0 | 0.0 | 4.0 | 0.00 | 0.00 | 0.00 | 59 | 1009.4 |
| 20260505100041 | 62 | 0 | 0.0 | 2.0 | 0.00 | 0.00 | 0.00 | 59 | 1009.1 |
| 20260505094537 | 62 | 96 | 0.0 | 2.0 | 0.00 | 0.00 | 0.00 | 60 | 1009.1 |
| 20260505093037 | 62 | 0 | 0.0 | 2.0 | 0.00 | 0.00 | 0.00 | 60 | 1009.1 |
| 20260505091539 | 62 | 0 | 0.0 | 2.0 | 0.00 | 0.00 | 0.00 | 59 | 1009.0 |
| 20260505090040 | 62 | 252 | 0.0 | 3.0 | 0.00 | 0.00 | 0.00 | 60 | 1008.9 |
| 20260505084546 | 62 | 0 | 0.0 | 1.0 | 0.00 | 0.00 | 0.00 | 60 | 1008.5 |
| 20260505083038 | 62 | 0 | 0.0 | 3.0 | 0.00 | 0.00 | 0.00 | 60 | 1008.4 |
| 20260505081544 | 62 | 0 | 0.0 | 3.0 | 0.00 | 0.00 | 0.00 | 60 | 1008.6 |
| 20260505080041 | 62 | 118 | 0.0 | 1.0 | 0.00 | 0.00 | 0.00 | 61 | 1008.8 |
| 20260505074540 | 63 | 0 | 0.0 | 1.0 | 0.00 | 0.00 | 0.00 | 59 | 1008.9 |
| 20260505073044 | 63 | 0 | 1.0 | 3.0 | 0.00 | 0.00 | 0.00 | 59 | 1008.3 |
| 20260505071537 | 64 | 0 | 0.0 | 4.0 | 0.00 | 0.00 | 0.00 | 58 | 1008.2 |
| 20260505070048 | 64 | 0 | 0.0 | 2.0 | 0.00 | 0.00 | 0.00 | 58 | 1008.1 |
| 20260505064541 | 64 | 124 | 0.0 | 5.0 | 0.00 | 0.00 | 0.00 | 58 | 1008.1 |
| 20260505063035 | 64 | 0 | 0.0 | 3.0 | 0.00 | 0.00 | 0.00 | 58 | 1008.3 |
| 20260505061540 | 63 | 52 | 0.0 | 3.0 | 0.00 | 0.00 | 0.00 | 58 | 1008.2 |
| 20260505060039 | 63 | 0 | 0.0 | 2.0 | 0.00 | 0.00 | 0.00 | 58 | 1008.3 |
| 20260505054540 | 63 | 0 | 0.0 | 1.0 | 0.00 | 0.00 | 0.00 | 59 | 1008.6 |
| 20260505053049 | 64 | 0 | 0.0 | 1.0 | 0.00 | 0.00 | 0.00 | 58 | 1008.7 |
| 20260505051539 | 64 | 130 | 0.0 | 2.0 | 0.00 | 0.00 | 0.00 | 57 | 1008.8 |
| 20260505041550 | 64 | 0 | 0.0 | 2.0 | 0.00 | 0.00 | 0.00 | 58 | 1008.9 |
| 20260505040050 | 63 | 94 | 0.0 | 2.0 | 0.00 | 0.00 | 0.00 | 59 | 1008.8 |
| 20260505034535 | 63 | 131 | 0.0 | 1.0 | 0.00 | 0.00 | 0.00 | 59 | 1008.8 |
| 20260505033035 | 63 | 0 | 0.0 | 1.0 | 0.00 | 0.00 | 0.00 | 61 | 1008.6 |
| 20260505031541 | 61 | 0 | 0.0 | 1.0 | 0.00 | 0.00 | 0.00 | 64 | 1008.5 |
| 20260505030037 | 59 | 0 | 0.0 | 0.0 | 0.00 | 0.00 | 0.00 | 75 | 1008.5 |
| 20260505024554 | 59 | 0 | 0.0 | 0.0 | 0.00 | 0.00 | 0.00 | 76 | 1008.7 |
| 20260505023041 | 59 | 0 | 0.0 | 0.0 | 0.00 | 0.00 | 0.00 | 73 | 1008.7 |
| 20260505021539 | 60 | 0 | 0.0 | 0.0 | 0.00 | 0.00 | 0.00 | 71 | 1008.6 |
| 20260505020035 | 62 | 0 | 0.0 | 0.0 | 0.00 | 0.00 | 0.00 | 69 | 1008.7 |
| 20260505014558 | 63 | 0 | 0.0 | 1.0 | 0.00 | 0.00 | 0.00 | 63 | 1008.6 |
| 20260505013037 | 65 | 101 | 1.0 | 13.0 | 0.00 | 0.00 | 0.00 | 58 | 1008.6 |
| 20260505011548 | 67 | 74 | 0.0 | 3.0 | 0.00 | 0.00 | 0.00 | 48 | 1008.5 |
| 20260505010040 | 67 | 0 | 0.0 | 1.0 | 0.00 | 0.00 | 0.00 | 49 | 1008.0 |
| 20260505004539 | 68 | 108 | 0.0 | 3.0 | 0.00 | 0.00 | 0.00 | 46 | 1008.0 |
| 20260505003037 | 68 | 0 | 0.0 | 3.0 | 0.00 | 0.00 | 0.00 | 46 | 1007.9 |
| 20260505001538 | 69 | 124 | 0.0 | 2.0 | 0.00 | 0.00 | 0.00 | 44 | 1007.9 |
| 20260505000048 | 70 | 216 | 0.0 | 2.0 | 0.00 | 0.00 | 0.00 | 44 | 1007.8 |
| 20260504234547 | 71 | 330 | 0.0 | 4.0 | 0.00 | 0.00 | 0.00 | 43 | 1007.6 |
| 20260504233056 | 71 | 101 | 0.0 | 3.0 | 0.00 | 0.00 | 0.00 | 42 | 1007.4 |
| 20260504231540 | 72 | 128 | 1.0 | 7.0 | 0.00 | 0.00 | 0.00 | 41 | 1007.2 |
| 20260504230039 | 72 | 91 | 1.0 | 5.0 | 0.00 | 0.00 | 0.00 | 40 | 1007.2 |
| 20260504224540 | 73 | 68 | 2.0 | 6.0 | 0.00 | 0.00 | 0.00 | 39 | 1007.2 |
| 20260504223054 | 72 | 89 | 1.0 | 4.0 | 0.00 | 0.00 | 0.00 | 40 | 1007.0 |
| 20260504221540 | 74 | 319 | 1.0 | 6.0 | 0.00 | 0.00 | 0.00 | 38 | 1007.0 |
| 20260504220040 | 75 | 322 | 1.0 | 6.0 | 0.00 | 0.00 | 0.00 | 36 | 1007.1 |
| 20260504214540 | 75 | 200 | 3.0 | 10.0 | 0.00 | 0.00 | 0.00 | 36 | 1007.0 |
| 20260504213049 | 75 | 136 | 3.0 | 9.0 | 0.00 | 0.00 | 0.00 | 34 | 1006.9 |
| 20260504211537 | 75 | 143 | 2.0 | 6.0 | 0.00 | 0.00 | 0.00 | 34 | 1007.0 |
| 20260504210039 | 75 | 70 | 1.0 | 6.0 | 0.00 | 0.00 | 0.00 | 34 | 1007.1 |
| 20260504204545 | 76 | 251 | 3.0 | 10.0 | 0.00 | 0.00 | 0.00 | 34 | 1007.2 |
| 20260504203051 | 76 | 195 | 2.0 | 9.0 | 0.00 | 0.00 | 0.00 | 31 | 1007.3 |
| 20260504201539 | 76 | 67 | 2.0 | 12.0 | 0.00 | 0.00 | 0.00 | 31 | 1007.5 |
| 20260504200035 | 75 | 228 | 1.0 | 12.0 | 0.00 | 0.00 | 0.00 | 33 | 1007.5 |
| 20260504194537 | 74 | 224 | 3.0 | 9.0 | 0.00 | 0.00 | 0.00 | 30 | 1007.8 |
| 20260504193037 | 75 | 252 | 3.0 | 10.0 | 0.00 | 0.00 | 0.00 | 29 | 1008.1 |
| 20260504191541 | 74 | 359 | 3.0 | 9.0 | 0.00 | 0.00 | 0.00 | 30 | 1008.3 |
| 20260504190045 | 74 | 243 | 2.0 | 10.0 | 0.00 | 0.00 | 0.00 | 31 | 1008.4 |
| 20260504184540 | 74 | 77 | 4.0 | 10.0 | 0.00 | 0.00 | 0.00 | 31 | 1008.9 |
| 20260504183037 | 73 | 70 | 4.0 | 13.0 | 0.00 | 0.00 | 0.00 | 33 | 1009.1 |
| 20260504181544 | 73 | 143 | 3.0 | 10.0 | 0.00 | 0.00 | 0.00 | 34 | 1009.3 |
| 20260504180035 | 73 | 313 | 1.0 | 7.0 | 0.00 | 0.00 | 0.00 | 35 | 1009.4 |
| 20260504174543 | 72 | 113 | 4.0 | 10.0 | 0.00 | 0.00 | 0.00 | 35 | 1009.6 |
| 20260504173038 | 71 | 125 | 3.0 | 9.0 | 0.00 | 0.00 | 0.00 | 37 | 1009.9 |
| 20260504171545 | 70 | 248 | 3.0 | 8.0 | 0.00 | 0.00 | 0.00 | 38 | 1010.1 |